PDT,Max TemperatureF,Mean TemperatureF,Min TemperatureF,Max Dew PointF,MeanDew PointF,Min DewpointF,Max Humidity, Mean Humidity, Min Humidity, Max Sea Level PressureIn, Mean Sea Level PressureIn, Min Sea Level PressureIn, Max VisibilityMiles, Mean VisibilityMiles, Min VisibilityMiles, Max Wind SpeedMPH, Mean Wind SpeedMPH, Max Gust SpeedMPH,PrecipitationIn, CloudCover, Events, WindDirDegrees
2011-10-1,57,52,48,48,46,45,93,80,67,29.99,29.92,29.87,20,20,20,14,4,,0.00,7,,131
2011-10-2,57,52,46,50,47,43,93,83,72,29.98,29.93,29.84,20,18,5,8,3,,0.00,7,Rain,289
2011-10-3,60,54,48,52,51,48,94,87,68,29.80,29.78,29.76,20,14,1,7,2,,0.00,7,Rain,118
2011-10-4,57,50,44,48,46,45,100,80,63,29.75,29.58,29.44,20,12,0,18,5,30,0.00,6,Fog-Rain,125
2011-10-5,53,52,50,50,49,46,94,87,77,29.75,29.55,29.43,20,15,12,9,4,,0.00,8,Rain,51
2011-10-6,59,52,44,50,48,43,94,84,67,30.04,29.94,29.77,15,9,0,9,4,,0.00,5,Fog,244
2011-10-7,59,52,46,50,48,45,94,82,67,30.23,30.13,30.03,20,19,10,10,5,,0.00,6,Fog-Rain,169
2011-10-8,57,50,44,50,48,43,100,88,67,30.25,30.16,30.06,20,2,0,7,2,,0.00,7,Fog-Rain,201
2011-10-9,59,52,44,50,44,41,94,80,58,30.09,30.00,29.84,15,15,15,8,3,,0.00,5,Rain,241
2011-10-10,57,52,46,52,48,43,94,89,77,29.81,29.58,29.48,20,11,2,14,5,21,0.00,7,Rain,193
2011-10-11,59,55,51,52,49,46,94,84,72,30.01,29.71,29.48,20,14,3,18,10,23,0.00,6,Rain,170
2011-10-12,57,50,42,48,45,41,93,80,63,30.25,30.17,30.03,20,20,20,17,9,21,0.00,6,Rain,201
2011-10-13,55,47,39,46,43,37,93,84,63,30.27,30.21,30.09,20,16,10,10,4,,0.00,5,,287
2011-10-14,55,47,39,43,41,37,93,80,58,30.09,30.05,30.01,20,20,20,7,4,,0.00,5,,297
2011-10-15,53,44,35,43,39,34,93,84,67,30.17,30.11,30.05,20,20,20,9,5,,0.00,2,Fog,281
2011-10-16,53,44,35,45,39,32,100,85,67,30.32,30.19,30.09,15,15,15,7,4,,0.00,1,,237
2011-10-17,57,48,39,46,43,37,100,84,63,30.47,30.41,30.33,20,11,5,6,3,,0.00,5,,278
2011-10-18,60,50,41,48,44,37,93,82,59,30.37,30.18,29.97,20,20,20,8,5,,0.00,2,,302
2011-10-19,62,52,42,50,46,39,93,82,59,30.05,29.97,29.92,20,19,15,16,6,22,0.00,6,Rain,228
2011-10-20,57,54,48,50,47,43,94,80,63,30.13,30.09,30.04,20,17,10,13,5,18,0.00,7,,143
2011-10-21,59,54,48,52,48,43,94,84,59,30.21,30.11,30.06,20,11,4,16,4,22,0.00,7,Rain,195
2011-10-22,59,54,48,52,48,43,94,85,71,30.20,30.14,30.09,20,11,3,14,6,,0.00,7,Rain,168
2011-10-23,57,50,42,45,43,41,93,80,55,30.22,30.18,30.14,,,,12,5,,0.00,4,Rain,279
2011-10-24,55,47,39,41,39,36,93,80,54,30.39,30.27,30.15,,,,10,7,,0.00,1,,270
2011-10-25,51,43,35,43,38,34,100,86,62,30.51,30.45,30.40,20,16,12,7,5,,0.00,2,Fog,260
2011-10-26,46,40,35,43,40,34,100,91,81,30.41,30.28,30.18,20,11,0,13,5,,0.00,6,Fog-Rain,189
2011-10-27,48,42,35,41,37,34,100,87,71,30.37,30.28,30.11,20,14,0,8,4,,0.00,4,Fog,266
2011-10-28,50,46,41,48,42,37,94,88,76,30.08,29.94,29.81,20,11,1,14,4,,0.00,6,Rain,246
2011-10-29,55,46,37,45,41,37,100,85,63,30.30,30.23,30.08,,,,14,5,,0.00,5,,221
2011-10-30,57,48,39,52,44,37,100,85,62,30.18,30.07,30.01,20,7,1,17,5,28,0.00,6,Rain,206
2011-10-31,53,45,37,43,38,34,93,80,54,30.48,30.34,30.16,20,20,20,10,6,,0.00,2,,252